CAPE
0 5 3 49 11 4 10 36 68 29 92 96 323 341 391 258 300 368 184 383 514 724 872 747 458 297 651 1606 2207 3167 3599 4238 3490 2817 2063 1820 1610 2162 1764 1731 1163 949 436 541
1 41 15 34 0 2 9 54 48 93 8 171 182 270 177 188 334 370 478 655 556 916 1080 958 952 754 754 1616 2035 2446 3178 3760 3216 2572 2602 2130 1574 1251 981 1590 1392 808 898 680
1 13 33 74 0 0 12 58 5 0 0 88 114 352 53 7 32 351 537 600 981 665 588 1282 1372 1613 1168 1536 1904 2151 2603 3328 3139 3203 2944 2555 1908 1828 1310 1242 1683 888 705 805
5 13 32 2 0 0 56 3 0 0 76 114 105 475 220 136 101 187 309 253 753 596 686 759 923 2069 1966 1580 1739 2065 2325 2886 2786 2980 2587 2687 1740 1397 893 1789 1360 1071 790 764
0 0 9 34 0 0 7 0 0 134 38 79 35 44 215 0 0 0 217 317 382 277 179 223 404 634 1694 2136 1498 1850 2454 2809 2598 2579 2636 2507 1794 1293 1789 1442 1922 1333 1064 1328
0 2 0 0 0 0 0 31 261 324 185 261 35 16 159 266 235 49 384 62 59 105 208 398 505 626 885 1937 1819 1823 2360 2709 2718 2531 2382 2308 2347 2215 1721 1474 1480 1687 1312 1342
0 0 0 0 0 0 14 324 262 455 753 151 285 141 305 153 104 247 121 96 156 175 197 334 534 407 1031 1143 1635 1578 2128 2513 2555 2271 2213 2141 2100 2021 1918 1646 847 1367 792 1135
0 13 0 0 0 0 0 28 257 396 234 115 215 25 84 0 18 75 111 273 218 325 231 190 530 290 173 531 1476 1063 1826 2166 2231 2141 2185 2376 2197 1745 1673 1430 1036 1433 1256 657
1 80 0 0 0 0 0 3 82 437 93 257 316 45 50 4 73 210 269 328 376 437 204 26 294 209 238 930 1472 1052 1397 1898 2433 1996 2022 1745 1618 2049 1546 1715 1550 1490 1622 1300
0 21 67 0 0 0 0 33 347 153 600 351 43 246 557 353 237 399 32 591 493 405 55 0 75 561 389 260 735 1110 922 1602 2799 2196 2144 2086 2185 1907 1732 1705 1455 1625 1763 1839
0 25 27 9 0 40 49 131 263 452 530 271 141 90 331 130 18 34 65 414 461 294 24 0 10 244 492 271 45 929 870 1748 2128 1742 1839 2149 2211 2018 1910 1815 1347 1459 1437 1782
0 375 2 6 31 121 49 147 214 309 510 584 313 207 118 59 1 13 2 580 618 201 82 0 6 128 731 426 267 906 1237 1158 1502 1243 1609 971 1762 1720 1325 1409 1771 1428 1417 1589
106 0 0 101 103 205 21 73 303 303 991 888 243 534 201 8 0 48 565 596 584 178 89 58 45 169 595 503 695 750 777 1164 1421 1230 1039 1173 1675 1943 1839 1664 1937 1593 1298 1498
640 408 198 174 111 12 229 291 229 213 329 263 173 280 721 99 0 555 801 524 179 61 78 145 182 286 251 458 482 951 978 1080 1009 966 381 972 1032 1404 1874 1853 1556 1226 1346 1189
21 120 9 29 60 138 20 0 6 112 185 388 314 318 686 408 242 76 487 700 126 59 55 59 235 430 182 238 495 941 1131 1095 1112 685 777 569 696 876 1027 1461 1641 1665 1205 1147
569 432 171 49 51 23 3 115 82 15 108 239 428 304 438 91 3 61 316 599 112 48 1 49 244 490 339 65 243 810 662 898 709 592 341 67 254 110 596 680 816 1311 1227 1304
1518 1023 1061 240 379 233 354 475 90 355 472 163 136 269 557 360 51 0 7 585 293 56 45 41 264 625 675 80 342 364 407 329 356 72 25 1 4 3 0 0 9 218 585 1001
1546 2109 824 402 364 89 392 99 143 120 266 135 175 150 561 327 426 0 233 426 454 123 97 147 357 523 437 53 184 52 136 475 279 130 0 0 0 0 0 0 0 185 426 599
1549 1744 458 790 452 312 432 8 0 175 364 232 487 408 566 384 604 815 883 716 635 278 232 375 469 607 774 261 250 55 84 297 138 42 0 0 0 0 0 0 118 494 656 751
1398 2154 824 388 274 558 978 0 125 217 100 1142 111 21 0 287 666 819 692 613 545 472 461 526 477 1012 1151 796 834 221 189 243 330 42 0 0 0 0 0 0 57 432 640 412
725 607 281 473 195 342 374 59 344 198 1826 2064 851 191 100 1082 1919 2023 956 795 661 860 876 896 767 873 1624 908 999 667 731 495 359 63 14 43 8 6 27 81 249 503 539 536
1387 634 29 61 355 701 257 122 506 1645 2605 1684 1454 2216 2379 2218 1282 1418 1340 1299 1251 950 579 680 1086 1147 1824 1404 1047 987 1050 1003 579 205 160 126 39 1 33 118 288 565 364 528
1022 595 461 0 519 1324 898 724 988 1737 1418 1523 2598 2137 1959 2197 2098 1590 1733 1878 1618 981 240 950 1273 1559 1879 1516 1228 964 1239 637 494 534 551 528 36 34 132 311 419 276 237 255
398 287 760 897 888 653 756 552 1223 1365 1096 1018 1369 2001 1792 2229 1823 2101 2004 2121 771 1375 1531 1447 1686 1382 1980 1664 1266 1244 1054 609 535 666 736 520 128 113 172 256 282 196 114 62
152 318 38 843 835 39 231 1420 1167 741 562 470 657 1150 1382 1674 1896 1512 1665 2288 1926 1589 1120 1782 1942 2110 1928 1800 1205 1236 945 908 888 804 455 17 0 11 77 395 103 116 229 66
72 653 363 579 584 886 773 1159 529 375 250 313 503 726 772 1065 1313 1481 1672 2049 2006 1685 1808 2148 2452 2866 2075 1558 970 969 972 1099 798 509 23 176 198 33 42 124 190 0 29 0
CIN
-0 -46 -37 -8 -11 -18 -20 -0 -1 -17 -93 -235 -12 -36 -17 -4 -31 -32 -45 -29 -9 -0 -23 -70 -80 -135 -142 -129 -126 -85 -48 -2 -8 -3 -5 -3 -5 -11 -3 -4 -9 -19 -11 -4
-11 -9 -39 -35 -0 -21 -24 -2 -5 -7 -15 -11 -17 -26 -109 -194 -74 -15 -3 -5 -11 -0 -2 -46 -57 -87 -88 -122 -120 -91 -42 -2 -4 -4 -6 -7 -14 -28 -34 -8 -12 -11 -11 -14
-19 -22 -17 -47 -0 -0 -10 -3 -1 -0 -0 -3 -13 -52 -302 -227 -184 -86 -14 -6 -6 -3 -1 -10 -11 -35 -114 -157 -133 -99 -63 -14 -3 -7 -5 -14 -31 -28 -16 -18 -10 -19 -13 -4
-1 -10 -6 -0 -12 -8 -1 -3 -0 -0 -5 -30 -16 -26 -257 -294 -283 -163 -166 -319 -1 -1 -4 -3 -2 -14 -38 -116 -141 -112 -97 -22 -14 -7 -6 -3 -6 -9 -24 -5 -14 -29 -32 -26
-0 -0 -7 -1 -0 -0 -27 -0 -1 -34 -50 -99 -206 -55 -153 -14 -0 -0 -183 -8 -0 -5 -11 -6 -5 -4 -12 -31 -83 -92 -60 -9 -2 -3 -7 -5 -7 -13 -8 -7 -7 -23 -52 -13
-0 -39 -0 -0 -0 -0 -0 -5 -3 -72 -134 -23 -271 -115 -61 -111 -162 -328 -10 -38 -23 -1 -3 -3 -15 -18 -15 -8 -11 -21 -17 -4 -1 -0 -0 -7 -3 -1 -9 -2 -14 -9 -23 -21
-0 -0 -0 -0 -0 -0 -6 -1 -1 -1 -65 -81 -38 -48 -83 -134 -155 -90 -3 -3 -1 -3 -11 -30 -66 -77 -69 -58 -30 -3 -24 -21 -6 -0 -0 -1 -1 -0 -1 -2 -19 -9 -39 -42
-0 -28 -0 -0 -0 -0 -0 -1 -0 -0 -2 -1 -1 -23 -107 -34 -31 -308 -5 -3 -7 -17 -38 -57 -115 -143 -156 -161 -44 -54 -4 -12 -6 -11 -1 -1 -2 -4 -3 -8 -13 -25 -40 -37
-4 -1 -1 -0 -0 -0 -7 -5 -3 -4 -7 -4 -47 -45 -145 -323 -323 -214 -1 -5 -16 -26 -41 -76 -131 -191 -166 -69 -31 -46 -2 -2 -16 -53 -33 -31 -34 -8 -19 -7 -10 -25 -21 -27
-0 -21 -3 -0 -0 -0 -0 -22 -6 -34 -0 -9 -176 -179 -38 -62 -174 -120 -67 -9 -20 -9 -25 -0 -130 -126 -156 -168 -81 -53 -29 -4 -31 -27 -26 -15 -5 -7 -12 -7 -16 -10 -10 -11
-0 -59 -31 -52 -0 -14 -21 -7 -19 -8 -52 -25 -98 -26 -47 -123 -415 -447 -279 -6 -4 -0 -47 -0 -68 -121 -142 -196 -260 -69 -33 -8 -6 -4 -8 -3 -1 -7 -9 -5 -20 -8 -12 -1
-0 -12 -25 -64 -23 -36 -90 -85 -7 -3 -11 -23 -99 -70 -269 -425 -30 -542 -533 -8 -11 -17 -86 -0 -68 -137 -91 -175 -214 -59 -14 -4 -0 -3 -3 -18 -1 -4 -15 -13 -2 -2 -2 -3
-82 -0 -6 -27 -4 -17 -50 -115 -145 -1 -2 -3 -2 -56 -274 -261 -38 -279 -3 -4 -8 -28 -109 -126 -123 -135 -96 -143 -119 -96 -73 -6 -1 -0 -7 -16 -6 -3 -4 -8 -0 -2 -4 -3
-84 -13 -39 -15 -17 -37 -6 -13 -3 -3 -1 -4 -5 -0 -38 -283 -0 -220 -2 -2 -39 -37 -127 -116 -135 -134 -146 -143 -131 -59 -38 -5 -1 -1 -55 -3 -10 -11 -5 -2 -1 -1 -1 -4
-176 -86 -131 -99 -54 -2 -32 -0 -7 -0 -0 -1 -1 -1 -91 -244 -249 -80 -15 -14 -42 -65 -108 -123 -122 -139 -169 -179 -111 -57 -14 -6 -0 -6 -2 -47 -12 -13 -5 -2 -1 -0 -2 -1
-24 -38 -63 -105 -49 -33 -0 -8 -13 -18 -0 -2 -7 -7 -242 -459 -256 -588 -293 -45 -89 -90 -17 -123 -120 -127 -180 -255 -187 -56 -70 -18 -13 -10 -30 -101 -31 -43 -0 -2 -2 -0 -0 -0
-0 -5 -0 -53 -1 -4 -5 -34 -149 -18 -22 -27 -22 -9 -218 -372 -209 -0 -233 -2 -54 -119 -124 -123 -104 -117 -126 -244 -144 -113 -87 -91 -49 -91 -39 -0 -0 -3 -0 -0 -25 -1 -1 -1
-3 -0 -2 -28 -5 -24 -54 -131 -228 -161 -194 -66 -25 -3 -66 -139 -108 -22 -215 -4 -28 -81 -91 -98 -105 -131 -151 -246 -163 -227 -149 -39 -40 -53 -0 -0 -0 -0 -0 -0 -0 -3 -0 -1
-5 -3 -1 -0 -0 -3 -11 -325 -0 -278 -54 -28 -70 -248 -36 -21 -11 -32 -3 -28 -56 -60 -95 -94 -130 -163 -126 -184 -150 -196 -157 -65 -65 -79 -0 -0 -0 -0 -0 -0 -7 -1 -0 -1
-3 -5 -11 -3 -1 -0 -71 -3 -269 -75 -2 -29 -319 -596 -0 -132 -1 -8 -14 -29 -67 -83 -77 -86 -95 -109 -92 -85 -77 -140 -121 -95 -43 -74 -0 -0 -0 -0 -0 -0 -14 -0 -0 -6
-127 -182 -227 -138 -15 -0 -15 -224 -37 -10 -13 -26 -114 -324 -276 -26 -8 -15 -27 -31 -55 -58 -72 -80 -105 -100 -28 -66 -69 -95 -71 -66 -57 -102 -126 -68 -31 -55 -23 -10 -6 -1 -1 -3
-24 -142 -226 -51 -82 -5 -76 -74 -39 -18 -6 -17 -31 -8 -7 -6 -1 -3 -7 -9 -26 -41 -50 -68 -22 -18 -14 -50 -79 -85 -62 -25 -44 -85 -54 -25 -38 -29 -6 -3 -7 -3 -17 -21
-2 -3 -146 -0 -93 -151 -155 -131 -92 -4 -17 -20 -18 -30 -23 -20 -10 -1 -2 -6 -17 -23 -6 -4 -7 -22 -21 -24 -62 -66 -18 -42 -24 -2 -0 -1 -17 -3 -1 -27 -14 -24 -34 -28
-18 -314 -11 -9 -5 -22 -4 -3 -7 -19 -25 -45 -20 -12 -19 -1 -11 -2 -1 -8 -122 -17 -7 -4 -13 -12 -20 -26 -25 -35 -27 -38 -16 -1 -0 -9 -17 -33 -17 -8 -20 -30 -44 -97
-103 -391 -111 -1 -49 -405 -212 -15 -31 -41 -46 -38 -19 -9 -3 -0 -0 -1 -3 -3 -7 -23 -35 -20 -12 -24 -21 -32 -30 -12 -2 -1 -3 -1 -38 -155 -0 -142 -80 -9 -46 -45 -35 -106
-65 -3 -13 -12 -7 -0 -3 -13 -54 -70 -32 -24 -6 -1 -8 -24 -17 -12 -7 -5 -7 -6 -9 -9 -28 -29 -32 -35 -35 -12 -10 -4 -12 -41 -93 -55 -44 -124 -52 -39 -20 -0 -39 -0
Wind_Speed
18 16 3 29 9 12 14 17 16 9 14 18 12 10 7 15 9 8 5 9 7 7 15 10 6 6 6 4 4 3 3 4 5 5 6 6 6 4 3 3 6 6 5 6
18 8 12 24 12 15 14 16 14 12 12 7 10 12 16 23 19 8 11 10 9 9 11 11 9 6 3 5 3 2 4 5 4 4 4 5 4 4 4 4 4 5 6 5
17 9 10 21 12 16 16 13 15 17 20 4 15 16 12 7 25 23 13 5 10 2 3 10 10 8 9 8 6 5 4 6 5 6 3 2 3 3 1 3 2 4 4 4
16 14 10 6 14 17 14 19 21 18 18 10 21 5 7 9 14 22 23 37 11 9 9 7 6 12 10 11 10 7 6 5 5 5 4 4 2 3 5 3 4 5 8 6
13 17 16 10 12 15 15 18 15 12 11 7 9 1 2 5 6 24 15 7 5 5 7 5 3 5 8 12 10 7 7 5 3 5 4 2 4 5 4 1 5 2 5 6
20 14 17 9 12 14 10 14 2 10 5 7 6 9 4 10 9 19 7 5 2 4 9 13 14 13 12 8 8 8 10 7 6 4 4 4 6 3 4 1 5 3 4 6
19 19 17 12 9 18 10 14 9 3 1 6 8 9 9 17 16 24 10 10 4 6 13 13 14 12 12 10 10 4 11 9 7 5 5 5 6 5 7 3 6 6 3 3
16 7 10 6 4 9 13 13 7 14 11 14 7 2 3 14 21 23 5 8 5 10 10 8 13 10 9 6 7 7 4 9 9 8 7 6 6 5 5 6 7 6 3 2
13 9 10 5 5 12 7 10 13 16 14 4 10 9 12 6 19 25 12 11 7 6 5 9 15 11 9 7 7 6 6 3 5 7 4 3 5 5 6 6 5 7 5 4
13 9 9 9 3 11 12 9 7 5 11 7 8 7 6 9 21 14 25 12 9 3 10 7 12 11 8 9 9 10 8 7 10 6 3 2 3 6 6 6 6 7 4 5
8 6 13 16 9 13 5 4 1 3 3 2 2 7 6 4 5 15 26 5 9 8 8 8 10 9 9 10 11 9 7 11 5 2 2 4 3 5 6 4 6 4 6 5
10 6 9 15 8 14 11 14 13 4 4 4 3 4 13 19 20 25 16 8 9 5 8 10 9 9 11 10 9 9 9 9 6 5 4 5 3 5 3 2 6 3 5 5
5 2 7 16 11 3 5 7 19 6 5 11 12 3 20 23 19 20 11 12 12 12 8 11 7 9 11 9 7 9 7 6 5 5 7 6 5 4 2 4 3 4 5 6
6 5 8 11 14 10 9 16 16 4 4 10 12 12 9 10 14 25 6 7 11 10 9 9 7 9 10 8 6 7 6 5 6 4 2 4 5 4 6 4 4 2 3 5
1 5 12 15 19 18 15 14 16 14 10 11 11 15 14 8 7 12 6 11 4 11 10 9 9 8 9 7 5 7 5 5 5 6 4 4 4 7 7 7 5 3 3 2
5 7 12 16 18 17 19 18 13 16 12 9 13 12 3 6 9 12 29 12 7 12 10 8 7 7 7 5 4 6 3 4 3 4 6 6 5 5 4 5 6 4 4 4
7 7 9 14 18 12 14 6 19 13 15 16 14 12 8 6 4 15 18 10 8 12 8 5 6 8 5 1 3 4 3 1 2 2 4 4 2 5 3 4 5 5 4 5
8 7 9 12 14 19 8 12 8 6 21 9 12 6 14 11 20 8 21 9 10 9 7 5 7 7 4 2 3 2 3 4 3 2 3 3 2 3 3 3 3 2 2 4
10 8 11 11 13 18 6 7 7 7 10 12 13 21 8 9 8 6 8 11 10 6 6 6 7 7 4 2 3 1 3 3 6 5 1 4 3 3 4 3 3 3 3 4
13 10 8 11 16 20 7 9 19 26 5 13 19 23 25 27 7 9 8 12 10 7 6 6 7 10 6 4 4 3 2 5 6 3 2 5 2 1 3 1 2 3 4 5
3 6 5 17 14 18 10 16 15 10 6 11 9 12 21 12 4 5 3 4 4 7 8 8 6 5 6 4 4 4 5 6 2 2 4 7 1 3 5 1 2 4 4 4
9 8 5 9 11 11 12 16 10 5 6 9 9 9 10 11 7 6 9 7 9 7 6 8 6 8 9 8 6 7 8 4 4 4 7 4 0 0 3 2 2 5 5 6
12 4 7 9 14 10 8 7 13 8 6 8 10 9 11 11 12 10 8 9 10 7 2 10 8 11 9 10 8 8 6 5 5 5 4 4 2 1 0 3 5 5 5 3
6 17 10 6 9 5 8 7 5 9 6 7 9 10 10 12 11 13 10 7 5 10 6 10 8 8 10 11 10 9 7 5 5 4 4 3 1 3 4 5 2 2 2 4
3 10 20 8 6 8 27 14 12 9 9 11 11 11 13 11 11 11 12 9 8 7 6 7 8 9 11 11 11 9 8 7 6 4 5 9 5 4 9 6 4 4 4 5
12 10 9 7 8 8 7 6 8 7 11 11 13 10 9 13 15 15 11 10 9 9 9 8 9 10 12 15 13 10 9 6 3 9 7 2 2 5 6 3 5 3 6 9
Wind_Direction
267 258 42 298 338 339 312 320 349 112 154 191 59 90 149 165 144 151 186 174 210 216 130 134 145 133 123 127 143 164 184 146 146 154 179 226 214 183 188 225 202 164 176 221
254 267 9 310 317 303 290 308 347 307 2 14 102 64 41 31 321 183 203 170 240 199 153 148 161 146 155 133 138 165 181 157 181 200 192 217 208 196 180 186 208 174 168 210
275 268 192 247 295 300 317 318 346 332 326 334 13 60 48 50 294 316 326 224 172 304 56 166 183 157 154 151 164 181 191 163 193 250 191 86 38 49 44 280 186 167 189 227
273 281 267 301 294 283 309 348 331 330 0 48 360 68 77 239 282 320 91 258 179 141 184 163 185 183 175 167 163 170 176 175 192 264 266 150 204 235 213 244 206 190 185 205
268 288 314 281 316 334 316 322 319 21 13 353 350 34 264 309 252 247 265 100 108 208 133 181 149 123 155 164 153 166 158 166 229 191 274 306 196 288 250 21 301 180 163 189
287 286 289 275 283 303 301 287 211 53 25 340 208 174 267 227 232 253 166 98 205 228 149 78 54 52 47 116 144 150 152 161 173 216 212 273 313 287 307 286 320 213 194 190
256 251 245 255 313 284 236 299 315 258 49 234 237 231 185 221 242 278 157 165 121 20 59 65 57 36 60 42 34 354 151 156 169 201 215 217 235 260 285 267 269 282 239 179
287 336 268 160 250 318 317 299 310 321 327 352 178 84 232 275 306 287 162 120 80 55 55 68 86 52 44 62 57 14 73 151 169 186 199 208 226 228 239 230 253 266 262 265
284 316 148 197 309 300 322 319 346 332 287 332 69 5 304 315 278 281 181 115 101 96 98 70 96 78 50 62 101 50 31 116 86 61 77 211 214 216 254 279 273 245 245 266
269 312 287 120 216 265 246 295 331 333 317 23 143 208 230 185 237 330 338 135 115 196 79 68 89 93 63 41 64 58 6 62 83 79 100 276 259 244 244 265 262 271 306 314
266 270 290 315 278 276 193 223 238 299 313 22 293 122 127 91 163 272 248 149 138 96 60 62 85 79 77 53 31 61 18 79 71 73 234 258 213 234 219 233 272 257 249 249
230 228 269 281 337 37 29 337 303 310 339 210 211 161 193 180 208 224 249 133 80 54 74 68 63 66 82 63 46 61 48 40 10 345 268 81 301 307 43 299 260 234 261 235
293 260 259 263 233 51 317 268 256 248 227 275 303 106 194 206 214 240 197 127 141 108 73 74 36 56 79 67 65 63 51 18 15 325 60 46 16 354 15 331 306 272 245 253
14 301 271 289 317 300 219 234 268 288 253 288 295 334 101 101 78 314 130 131 88 92 81 82 53 54 72 62 47 77 63 45 349 347 21 58 39 352 33 48 357 327 265 273
206 264 273 278 285 290 301 289 284 291 287 276 323 336 71 82 149 229 187 103 140 106 81 64 65 56 48 49 47 82 60 58 334 342 350 103 46 50 28 32 43 28 330 326
184 266 264 279 283 281 278 289 279 277 291 308 324 301 219 203 67 101 262 140 140 84 71 66 67 75 61 30 41 73 74 59 345 360 343 61 60 66 49 42 20 37 19 12
190 251 265 270 287 321 305 304 352 346 339 330 333 338 238 292 153 213 253 152 110 101 95 83 88 88 92 1 84 54 66 7 271 360 340 71 84 115 83 48 24 10 3 343
283 256 267 279 280 274 8 111 192 7 315 313 311 286 216 121 245 18 266 126 93 98 110 109 103 110 111 73 85 37 12 260 13 255 2 1 346 35 59 93 50 353 356 336
201 261 284 284 282 279 216 38 311 167 284 345 28 7 347 212 167 198 140 94 88 106 131 146 122 123 138 176 103 304 289 6 283 96 327 288 336 29 16 31 18 336 325 295
203 198 249 270 285 291 253 122 216 248 246 38 81 43 332 296 314 59 82 119 138 147 174 154 142 130 168 197 136 230 282 263 266 129 215 269 303 355 338 346 334 304 301 282
80 349 74 296 252 262 30 181 253 277 43 342 108 178 209 253 59 102 89 120 138 181 186 161 162 174 157 175 165 213 241 246 220 135 237 251 229 100 248 137 14 289 278 288
180 148 179 240 317 243 354 350 3 334 322 326 337 344 335 324 298 197 189 198 198 195 197 190 199 177 171 178 194 217 235 227 218 223 246 272 92 256 321 73 253 264 275 271
245 282 167 150 212 209 204 174 228 232 0 337 336 315 312 303 304 297 288 222 221 190 216 224 210 182 176 174 197 226 229 240 232 249 232 245 218 247 46 253 251 262 280 254
329 20 297 289 308 293 250 290 95 67 30 334 319 305 295 297 302 308 300 306 223 243 225 230 209 209 183 177 187 204 227 233 233 236 269 223 216 304 197 249 267 264 159 96
240 92 239 282 316 49 293 48 40 22 346 335 320 317 320 298 290 290 297 290 295 299 268 242 232 213 198 181 180 184 200 218 216 208 55 75 64 40 284 251 214 239 211 167
302 300 318 315 305 316 306 89 38 318 298 303 287 289 329 326 319 316 310 306 297 294 295 282 239 215 206 191 158 171 198 202 137 67 58 30 212 241 259 262 263 217 197 199